FW7786 Weather Reports


time (UTC)temp
F
wind
direction
speed
knots
gust
knots
rain 1hr
in
rain 24hr
in
rain mn
in
humidity
%
barometer
mb
20260507150058 56 0 0.0 0.9 0.00 0.04 0.03 68 1011.4
20260507144556 56 0 0.0 0.0 0.00 0.09 0.03 70 1011.6
20260507143110 56 0 0.0 0.9 0.00 0.09 0.03 70 1012.1
20260507141559 56 0 0.0 2.6 0.00 0.09 0.03 70 1012.2
20260507134602 56 0 0.9 7.8 0.00 0.09 0.03 70 1012.2
20260507133103 56 0 0.0 7.0 0.00 0.09 0.03 70 1012.0
20260507131612 56 0 0.0 3.5 0.00 0.09 0.03 72 1011.8
20260507130056 56 0 0.0 1.7 0.00 0.09 0.03 75 1011.9
20260507124552 56 0 0.0 4.3 0.00 0.09 0.03 77 1011.8
20260507123055 56 0 0.0 0.0 0.00 0.09 0.03 78 1011.7
20260507121554 55 0 0.0 0.0 0.00 0.09 0.03 79 1011.6
20260507120055 55 0 0.0 0.0 0.00 0.09 0.03 82 1011.5
20260507114558 55 0 0.0 0.0 0.00 0.09 0.03 84 1011.5
20260507113100 55 0 0.0 0.0 0.00 0.09 0.03 85 1011.4
20260507111559 55 0 0.0 5.2 0.00 0.09 0.03 85 1011.3
20260507110056 55 0 0.0 0.0 0.00 0.09 0.03 87 1011.2
20260507104555 54 0 0.0 0.0 0.00 0.09 0.03 87 1011.4
20260507103052 54 0 0.0 3.5 0.00 0.09 0.03 88 1011.2
20260507101556 54 0 0.0 0.0 0.00 0.09 0.03 89 1010.9
20260507100056 54 0 0.0 0.9 0.00 0.09 0.03 89 1011.0
20260507094554 55 0 0.0 0.0 0.00 0.09 0.03 91 1011.1
20260507093056 55 0 0.0 0.0 0.00 0.09 0.03 91 1010.9
20260507091553 55 0 0.0 0.0 0.00 0.09 0.03 92 1011.0
20260507090052 55 0 0.0 2.6 0.00 0.09 0.03 92 1010.7
20260507084602 55 0 0.0 1.7 0.00 0.09 0.03 91 1010.3
20260507083053 55 0 0.0 1.7 0.00 0.09 0.03 91 1010.8
20260507081556 55 0 0.0 0.0 0.00 0.09 0.03 91 1010.8
20260507080108 55 0 0.0 0.0 0.00 0.09 0.03 90 1011.0
20260507074550 55 0 0.0 0.9 0.00 0.09 0.03 90 1010.2
20260507073052 55 0 0.0 2.6 0.00 0.09 0.03 90 1010.0
20260507071607 56 0 0.0 0.9 0.00 0.09 0.03 90 1010.0
20260507070055 56 0 0.0 4.3 0.01 0.09 0.03 90 1010.0
20260507064556 57 31 0.9 9.6 0.01 0.09 0.03 91 1010.3
20260507063055 58 0 0.0 7.0 0.01 0.09 0.03 92 1010.4
20260507061558 58 0 0.0 5.2 0.01 0.09 0.03 92 1010.2
20260507060058 59 0 0.0 3.5 0.00 0.08 0.02 92 1008.5
20260507054554 60 0 0.0 2.6 0.01 0.08 0.02 92 1008.4
20260507053122 60 0 0.0 2.6 0.01 0.08 0.02 91 1008.7
20260507051601 61 0 0.0 4.3 0.01 0.08 0.02 90 1009.4
20260507050055 63 30 0.0 0.9 0.02 0.08 0.02 90 1009.8
20260507044557 64 0 0.0 0.0 0.01 0.07 0.01 92 1009.3
20260507043053 64 0 0.0 0.0 0.01 0.07 0.01 91 1009.2
20260507041556 64 0 0.0 0.0 0.01 0.07 0.01 90 1009.1
20260507040055 64 0 0.0 0.0 0.00 0.06 0.00 90 1009.2
20260507034551 65 0 0.0 0.0 0.00 0.06 0.06 89 1009.0
20260507033053 65 0 0.0 0.0 0.00 0.06 0.06 88 1008.9
20260507031554 65 0 0.0 0.0 0.00 0.06 0.06 87 1009.0
20260507030056 66 0 0.0 0.0 0.00 0.06 0.06 86 1009.3
20260507024604 66 0 0.0 0.0 0.00 0.06 0.06 86 1008.7
20260507023054 66 0 0.0 0.0 0.00 0.06 0.06 86 1008.5
20260507021551 66 0 0.0 0.0 0.00 0.06 0.06 86 1008.1
20260507020056 66 0 0.0 0.0 0.00 0.06 0.06 86 1008.7
20260507014619 66 0 0.0 0.0 0.00 0.06 0.06 85 1008.8
20260507013053 66 0 0.0 0.0 0.00 0.06 0.06 85 1008.7
20260507011556 66 0 0.0 0.0 0.00 0.06 0.06 84 1008.9
20260507004606 67 0 0.0 1.7 0.00 0.06 0.06 83 1008.5
20260507003059 67 0 0.0 0.0 0.00 0.06 0.06 83 1008.3
20260507001556 67 0 0.0 6.1 0.00 0.06 0.06 82 1008.5
20260507000057 68 0 0.0 0.0 0.00 0.06 0.06 81 1008.6
20260506234557 68 0 0.0 1.7 0.00 0.06 0.06 81 1008.4
20260506233059 69 0 0.0 3.5 0.00 0.06 0.06 81 1007.7
20260506231558 69 0 0.0 1.7 0.00 0.06 0.06 81 1007.9
20260506230055 69 0 0.0 0.9 0.00 0.06 0.06 80 1008.2
20260506224558 69 191 0.9 5.2 0.00 0.06 0.06 80 1008.0
20260506223055 69 0 0.0 8.7 0.00 0.06 0.06 79 1008.1
20260506221557 69 0 0.0 0.0 0.00 0.06 0.06 78 1008.3
20260506220053 70 0 0.0 0.0 0.00 0.06 0.06 77 1008.1
20260506214603 70 0 0.0 0.9 0.00 0.06 0.06 77 1008.0
20260506213053 70 0 0.0 0.0 0.00 0.06 0.06 77 1008.3
20260506211556 70 0 0.0 2.6 0.00 0.06 0.06 77 1008.0
20260506210101 70 0 0.0 8.7 0.00 0.06 0.06 78 1008.0
20260506204600 69 0 0.0 2.6 0.00 0.06 0.06 78 1008.1
20260506203056 69 167 0.0 1.7 0.00 0.06 0.06 78 1008.0
20260506201558 68 0 0.0 7.0 0.00 0.06 0.06 80 1008.1
20260506194556 66 0 0.0 0.0 0.00 0.06 0.06 82 1008.0
20260506193055 66 0 0.0 0.0 0.00 0.06 0.06 83 1008.2
20260506191604 66 250 0.9 7.8 0.00 0.06 0.06 84 1008.5
20260506190055 66 0 0.0 0.9 0.00 0.06 0.06 84 1008.8
20260506184553 65 0 0.9 7.0 0.00 0.06 0.06 85 1009.0
20260506183052 65 0 0.0 3.5 0.00 0.06 0.06 86 1009.2
20260506181600 65 0 0.0 8.7 0.00 0.06 0.06 85 1009.2
20260506180113 65 0 0.0 10.4 0.00 0.06 0.06 85 1009.4
20260506174553 65 0 0.0 7.0 0.00 0.06 0.06 85 1009.2
20260506173121 64 0 0.0 0.0 0.00 0.06 0.06 86 1009.4
20260506171557 64 0 0.0 4.3 0.00 0.06 0.06 87 1009.5
20260506170053 63 0 0.0 8.7 0.00 0.06 0.06 88 1009.5
20260506164553 63 0 0.0 0.9 0.00 0.06 0.06 90 1009.8
20260506163103 62 0 0.0 7.0 0.00 0.06 0.06 91 1009.9
20260506161556 62 0 0.0 4.3 0.00 0.06 0.06 91 1010.4
20260506160054 62 0 0.0 2.6 0.01 0.06 0.06 91 1010.1
20260506154551 61 0 0.0 4.3 0.02 0.06 0.06 92 1010.0
20260506153057 61 0 0.0 6.1 0.04 0.06 0.06 92 1010.1
20260506151555 61 0 0.0 0.0 0.06 0.06 0.06 92 1010.0